Regional Weather Roundup
Issued by NWS Mobile, AL

Home | Current Version | Previous Version | Text Only | Print | Product List | Glossary On
Versions: 1 2 3 4 5 6 7 8 9 10 11 12 13 14 15 16 17 18 19 20 21 22 23 24 25 26 27 28 29 30 31 32 33 34 35 36 37 38 39 40 41 42 43 44 45 46 47 48 49 50
000
ASUS44 KMOB 302015
RWRMOB
REGIONAL WEATHER ROUNDUP
NATIONAL WEATHER SERVICE MOBILE AL
300 PM CDT SUN AUG 30 2015

ALZ061>064-302100-
COASTAL ALABAMA


CITY           SKY/WX    TMP DP  RH WIND       PRES   REMARKS
MOBILE REG APT PTSUNNY   89  68  49 CALM      30.02F
BROOKLEY FIELD MOSUNNY   88  70  55 SE8       30.03F
GULF SHORES    CLEAR     86  74  66 S10       30.02F

$$

ALZ051>060-302100-
INTERIOR SOUTHWEST AND SOUTH CENTRAL ALABAMA


CITY           SKY/WX    TMP DP  RH WIND       PRES   REMARKS
ANDALUSIA/OPP  MOSUNNY   89  69  51 VRB3      30.03F
EVERGREEN      LGT RAIN  80  77  90 CALM      30.04F
FLORALA        MOCLDY    86  69  56 NE6       30.04F
GREENVILLE     FAIR      86  70  58 VRB5      30.04F

$$

FLZ001>006-302100-
WESTERN FLORIDA PANHANDLE


CITY           SKY/WX    TMP DP  RH WIND       PRES   REMARKS
CRESTVIEW      MOSUNNY   89  70  53 NE7       30.02F
DESTIN         SUNNY     87  72  60 VRB7      30.01F
DUKE FIELD     FAIR      90  64  43 VRB1      30.00F
MARY ESTHER    SUNNY     87  69  56 SW13      30.00F
MILTON         PTCLDY    92  68  45 VRB3      30.00F HX  96
PENSACOLA      MOSUNNY   86  73  65 S9        30.01F
NAS PENSACOLA  MOSUNNY   86  72  62 SW10      30.01F
VALPARAISO     MOSUNNY   88  71  56 S12       30.01F

$$

...MARINE OBSERVATIONS...

STATION/POSITION TIME  SKY/WX   TEMP    WIND        PRES    VSBY
                                AIR SEA DIR/SP/G
                 (UTC)          (F)     (DEG/KT/KT) (MB)    (MI)
E DAUPHIN ISLAND 2000            83     170/  5/  5 1016.7F
MIDDLE BAY LIGHT 1900                   140/  1     1016.9R
MEAHER PARK      1900            85     220/  4     1015.9F
12 S ORANGE BCH  1950            83 86  130/  6/  6 1016.3F
WVE H/P(F/S)=  1/ 5

64 S DAUPHIN ISL 1950            83 88   20/  2/  6 1017.2F
WVE H/P(F/S)=  1/ 4

115 SE PENSACOLA 1950            82 86   20/ 12/ 14 1016.0F
WVE H/P(F/S)=  2/ 5

MID GULF/42001   2000            85 86   90/ 12/ 14 1016.0F
EAST GULF/42003  1950            85 87  360/ 10/ 12 1014.1F
WVE H/P(F/S)=  3/ 5


$$

...NEARBY LOCATIONS

CITY           SKY/WX    TMP DP  RH WIND       PRES   REMARKS
GULFPORT       MOSUNNY   88  66  48 S9        30.01F
BILOXI         SUNNY     89  67  47 SW9       30.02F
PASCAGOULA     SUNNY     88  65  46 VRB7      30.02F
HATTIESBURG    MOSUNNY   92  59  33 E6        30.02F
LAUREL         MOSUNNY   91  59  33 E7        30.03F
MERIDIAN       PTSUNNY   86  67  52 E9        30.03F
MERIDIAN NAS   SUNNY     86  71  60 E10       30.04F
MONTGOMERY     PTSUNNY   87  67  51 NW10      30.04F
MAXWELL AFB    MOSUNNY   85  70  61 VRB7      30.03F
TROY           PTSUNNY   86  68  54 N7        30.04F
FORT RUCKER    SUNNY     90  67  46 NW8       30.01F
DALEVILLE        N/A     89  69  51 VRB7      30.02F
DOTHAN         SUNNY     88  69  53 VRB3      30.06F

$$

...OTHER SURROUNDING LOCATIONS...

CITY           SKY/WX    TMP DP  RH WIND       PRES   REMARKS
BIRMINGHAM     CLOUDY    73  69  87 N9        30.11F
TUSCALOOSA     PTSUNNY   80  70  71 N6        30.06F
COLUMBUS GA    SUNNY     85  66  53 W10       30.03F
PANAMA CITY    NOT AVBL
TALLAHASSEE    PTSUNNY   93  68  43 N8        29.98F HX  97
BATON ROUGE    MOSUNNY   91  63  39 VRB3      30.02F
NEW ORLEANS    MOSUNNY   90  65  43 VRB5      30.02F
SLIDELL        PTSUNNY   89  66  46 VRB6      30.01F
JACKSON        PTSUNNY   94  59  31 VRB6      30.00F
MCCOMB         MOSUNNY   90  65  43 E6        30.01F

$$

...SURROUNDING MARINE OBSERVATIONS...

STATION/POSITION TIME  SKY/WX   TEMP    WIND        PRES    VSBY
                                AIR SEA DIR/SP/G
                 (UTC)          (F)     (DEG/KT/KT) (MB)    (MI)
SOUTHWEST PASS   2000                                 N/A
TYNDALL TOWER C  2000            83      30/  3/  3 1015.1F
S APLCHCLA/42036 1950            85 87   10/  6/ 10 1015.4F
WVE H/P(F/S)=  2/ 5


$$




USA.gov is the U.S. government's official web portal to all federal, state and local government web resources and services.